[[{"header":{"parameterUnit":"m.s-1","parameterCategory":1,"la1":30.2991,"la2":30.254,"lo1":-89.0895,"lo2":-89.0444,"dy":0.0017,"dx":0.0017,"nx":28,"ny":28,"refTime":"2024-03-31T09:00:00:Z","depth":0,"parameterNumber":2,"parameterNumberName":"U-component_of_WINDS"},"data":[0,0,0,0,0,0,0,0,0,0,0,0,0,0,0,0,0,0,0,0,0,0,0,0,0,0,0,0,0,0,0,0,0,0,0,0,0,0,0,0,0,0,0,0,0,0,0,0,0,0,0,0,0,0,0,0,0,0,-3.0966,-3.0966,0,-3.1025,-3.1026,-3.1027,-3.1018,-3.1017,-3.1016,-3.1015,-3.1078,-3.1081,-3.1083,0,0,0,0,0,0,0,0,0,0,0,0,0,-3.0847,-3.0849,-3.0966,-3.0966,-3.0967,-3.1025,-3.1026,-3.1027,-3.1019,-3.1017,-3.1016,-3.1015,-3.1077,-3.1081,-3.1084,0,0,0,0,0,0,0,0,0,0,0,0,0,-3.0902,-3.085,-3.0966,-3.097,-3.0971,-3.1025,-3.1026,-3.1027,-3.1019,-3.1017,-3.1016,-3.1014,-3.1076,-3.108,-3.1084,-3.1138,0,0,-3.1096,-3.1098,0,0,0,0,0,0,0,0,-3.0899,-3.0906,-3.0969,-3.097,-3.0971,-3.1013,-3.1007,-3.1064,-3.1019,-3.1001,-3.1015,-3.1014,-3.1058,-3.1063,-3.1078,-3.1141,-3.1144,-3.1096,-3.1099,-3.11,-3.1102,0,0,0,0,0,0,0,-3.0895,-3.0904,-3.0989,-3.0969,-3.0971,-3.097,-3.0976,-3.1018,-3.1037,-3.1002,-3.1002,-3.1009,-3.1058,-3.1074,-3.1079,-3.1145,-3.1096,-3.11,-3.1102,-3.1104,-3.1257,-3.1258,0,0,0,0,0,0,-3.089,-3.09,-3.0987,-3.0991,-3.093,-3.0973,-3.098,-3.1001,-3.1037,-3.104,-3.101,-3.1008,-3.1068,-3.1075,-3.1081,-3.1147,-3.11,-3.1104,-3.1106,-3.1255,-3.1257,-3.1259,0,0,0,0,0,0,-3.0887,-3.0897,-3.0985,-3.0946,-3.0957,-3.0977,-3.1,-3.1003,-3.1019,-3.1042,-3.1046,-3.1022,-3.1067,-3.1076,-3.1124,-3.1149,-3.1106,-3.1109,-3.1253,-3.1255,-3.1258,-3.1278,0,0,0,0,0,0,-3.0884,-3.0897,-3.0916,-3.0946,-3.0959,-3.1026,-3.1002,-3.1005,-3.1025,-3.1023,-3.1055,-3.1059,-3.1067,-3.1118,-3.1128,-3.1153,-3.1112,-3.1251,-3.1254,-3.1257,-3.1275,-3.1281,-3.1286,0,0,0,0,0,-3.088,-3.092,-3.0917,-3.0928,-3.0984,-3.1027,-3.1035,-3.1042,-3.1027,-3.1048,-3.1063,-3.1058,-3.1145,-3.1123,-3.1134,-3.1161,-3.1249,-3.1253,-3.1257,-3.1272,-3.128,-3.1285,0,0,0,0,0,0,-3.0893,-3.0924,-3.0921,-3.0973,-3.0997,-3.1026,-3.1051,-3.1049,-3.1079,-3.1076,-3.1085,-3.1093,-3.1141,-3.1157,-3.1132,-3.1216,-3.1195,-3.1201,-3.1203,-3.121,-3.1215,-3.121,-3.1116,0,0,0,0,0,-3.0902,-3.0933,-3.0959,-3.1002,-3.1015,-3.1031,-3.105,-3.1054,-3.108,-3.1091,-3.111,-3.1136,-3.117,-3.1191,-3.1223,-3.1278,-3.1285,-3.1302,-3.1308,-3.1312,-3.1316,-3.1347,-3.1354,-3.1271,-3.1271,-3.1271,0,0,-3.092,-3.0941,-3.096,-3.1005,-3.1025,-3.1058,-3.104,-3.1076,-3.1101,-3.1097,-3.1142,-3.1158,-3.1188,-3.124,-3.1264,-3.1254,-3.1341,-3.1317,-3.132,-3.1322,-3.1351,-3.1359,-3.1366,-3.1274,-3.1274,-3.1273,0,0,-3.097,-3.099,-3.1027,-3.1047,-3.1077,-3.1088,-3.1098,-3.1127,-3.1137,-3.1184,-3.1181,-3.1212,-3.1269,-3.1291,-3.1309,-3.137,-3.1366,-3.1381,-3.1408,-3.1437,-3.1444,-3.1449,-3.147,-3.1478,-3.1386,-3.1386,-3.1386,0,-3.0989,-3.1038,-3.1047,-3.1083,-3.1103,-3.1101,-3.114,-3.1159,-3.1199,-3.1213,-3.1202,-3.1274,-3.1294,-3.1351,-3.1366,-3.1382,-3.1392,-3.1376,-3.1442,-3.1448,-3.1453,-3.1473,-3.1481,-3.1387,-3.1387,-3.1387,-3.1387,0,-3.106,-3.1094,-3.1121,-3.1158,-3.1182,-3.1219,-3.1234,-3.1257,-3.126,-3.1273,-3.1321,-3.1346,-3.1383,-3.1397,-3.1401,-3.1455,-3.1448,-3.144,-3.1419,-3.1463,-3.1481,-3.1489,-3.1389,-3.1389,-3.1389,-3.1388,0,0,-3.1116,-3.116,-3.1169,-3.1186,-3.1221,-3.1248,-3.1286,-3.1322,-3.1341,-3.137,-3.1401,-3.1451,-3.1444,-3.1465,-3.1471,-3.1497,-3.1543,-3.1486,-3.1487,-3.1494,-3.1604,-3.1609,-3.1617,-3.1542,-3.1544,-3.1545,-3.1601,0,-3.1168,-3.1234,-3.1244,-3.1302,-3.1334,-3.1335,-3.1368,-3.1394,-3.1407,-3.1437,-3.1453,-3.1488,-3.1476,-3.1489,-3.1515,-3.1532,-3.1565,-3.1529,-3.1572,-3.1573,-3.1561,-3.1627,-3.1632,-3.1684,-3.1609,-3.161,-3.1611,0,-3.1237,-3.1266,-3.1328,-3.1358,-3.1372,-3.1402,-3.1436,-3.1465,-3.1494,-3.1503,-3.1527,-3.1531,-3.1571,-3.1551,-3.1607,-3.1582,-3.1601,-3.1613,-3.1615,-3.1617,-3.1593,-3.163,-3.1701,-3.1708,-3.1623,-3.1622,-3.1621,0,-3.127,-3.1326,-3.137,-3.1385,-3.1422,-3.1443,-3.1459,-3.1487,-3.1509,-3.154,-3.1554,-3.1589,-3.1608,-3.1636,-3.165,-3.1634,-3.1705,-3.1686,-3.1713,-3.1713,-3.1725,-3.1724,-3.1798,-3.1742,-3.1741,-3.1741,-3.1741,0,-3.1326,-3.1363,-3.1385,-3.1412,-3.1454,-3.1466,-3.1508,-3.1525,-3.155,-3.158,-3.1584,-3.1613,-3.163,-3.1662,-3.1674,-3.1718,-3.1727,-3.1735,-3.1737,-3.1734,-3.1732,-3.1744,-3.174,-3.1743,-3.1743,-3.1743,-3.1742,0,-3.1369,-3.1386,-3.1433,-3.1465,-3.1474,-3.1504,-3.1531,-3.1558,-3.1573,-3.1611,-3.1621,-3.1645,-3.1682,-3.1699,-3.1746,-3.1754,-3.1805,-3.1805,-3.1794,-3.1794,-3.182,-3.1816,-3.1902,-3.1914,-3.1851,-3.1852,-3.1853,0,-3.1402,-3.1431,-3.1466,-3.1486,-3.1503,-3.1537,-3.1559,-3.1573,-3.1596,-3.1632,-3.1655,-3.1693,-3.1723,-3.1784,-3.1806,-3.1842,-3.1842,-3.187,-3.1848,-3.1843,-3.1841,-3.1838,-3.1841,-3.1873,-3.1874,-3.1874,-3.1875,0,-3.1459,-3.1466,-3.1497,-3.1531,-3.1557,-3.1585,-3.1613,-3.163,-3.1649,-3.1674,-3.1713,-3.1737,-3.1785,-3.1822,-3.1861,-3.1879,-3.188,-3.1882,-3.189,-3.1885,-3.1877,-3.188,-3.1803,-3.1879,-3.1879,-3.1879,-3.1878,-3.1878,-3.1497,-3.1522,-3.1551,-3.1586,-3.1608,-3.1634,-3.166,-3.1679,-3.1711,-3.175,-3.1758,-3.1799,-3.1829,-3.188,-3.19,-3.1933,-3.1927,-3.1938,-3.1941,-3.1943,-3.1944,-3.1874,-3.1941,-3.1941,-3.194,-3.194,-3.194,0,-3.1552,-3.1571,-3.1603,-3.1641,-3.1669,-3.1669,-3.17,-3.1723,-3.1758,-3.1786,-3.1817,-3.1862,-3.1899,-3.1924,-3.1962,-3.1983,-3.1985,-3.1993,-3.199,-3.1994,-3.1948,-3.1937,-3.1991,-3.1991,-3.1991,-3.1991,-3.1991,-3.1991,-3.1584,-3.1627,-3.1638,-3.1692,-3.1712,-3.1751,-3.1768,-3.1793,-3.1815,-3.1864,-3.1895,-3.1912,-3.1939,-3.1979,-3.2013,-3.202,-3.2033,-3.2041,-3.2047,-3.2003,-3.1998,-3.1992,-3.1981,-3.2044,-3.2044,-3.209,-3.2091,-3.2091]},{"header":{"parameterUnit":"m.s-1","parameterCategory":1,"la1":30.2991,"la2":30.254,"lo1":-89.0895,"lo2":-89.0444,"dy":0.0017,"dx":0.0017,"nx":28,"ny":28,"refTime":"2024-03-31T09:00:00:Z","depth":0,"parameterNumber":3,"parameterNumberName":"V-component_of_WINDS"},"data":[0,0,0,0,0,0,0,0,0,0,0,0,0,0,0,0,0,0,0,0,0,0,0,0,0,0,0,0,0,0,0,0,0,0,0,0,0,0,0,0,0,0,0,0,0,0,0,0,0,0,0,0,0,0,0,0,0,0,4.4646,4.4647,0,4.4748,4.475,4.4751,4.4767,4.4766,4.4765,4.4764,4.4866,4.487,4.4873,0,0,0,0,0,0,0,0,0,0,0,0,0,4.4462,4.4466,4.4646,4.4647,4.4648,4.4748,4.475,4.4751,4.4767,4.4766,4.4765,4.4764,4.4865,4.4869,4.4873,0,0,0,0,0,0,0,0,0,0,0,0,0,4.4551,4.4467,4.4646,4.4669,4.4672,4.4748,4.475,4.4751,4.4767,4.4766,4.4765,4.4763,4.4864,4.4869,4.4874,4.4934,0,0,4.489,4.4893,0,0,0,0,0,0,0,0,4.4546,4.4558,4.4664,4.4667,4.4671,4.4744,4.4722,4.4812,4.4768,4.4731,4.4764,4.4763,4.4826,4.4835,4.4857,4.4939,4.4943,4.4891,4.4894,4.4896,4.4898,0,0,0,0,0,0,0,4.454,4.4554,4.4686,4.4665,4.467,4.4673,4.4684,4.474,4.4785,4.4734,4.4735,4.4747,4.4828,4.4851,4.4859,4.4944,4.4891,4.4895,4.4899,4.4901,4.5083,4.5085,0,0,0,0,0,0,4.453,4.4548,4.4683,4.4689,4.4604,4.4678,4.469,4.4721,4.4784,4.4793,4.4749,4.4748,4.4843,4.4853,4.4863,4.4939,4.4896,4.4901,4.4904,4.5082,4.5084,4.5086,0,0,0,0,0,0,4.4526,4.4542,4.4679,4.4619,4.4637,4.4682,4.4717,4.4724,4.4748,4.4795,4.4803,4.4765,4.4842,4.4855,4.4917,4.4943,4.4904,4.4908,4.508,4.5082,4.5085,4.5091,0,0,0,0,0,0,4.4521,4.454,4.4564,4.462,4.464,4.4732,4.4719,4.4727,4.4758,4.4758,4.4812,4.482,4.4842,4.4909,4.4922,4.495,4.4913,4.5078,4.5081,4.5084,4.5089,4.5094,4.5098,0,0,0,0,0,4.4514,4.456,4.4565,4.4581,4.4671,4.4733,4.4745,4.477,4.4759,4.4784,4.4814,4.4818,4.4938,4.4915,4.493,4.496,4.5076,4.508,4.5084,4.5087,4.5093,4.5098,0,0,0,0,0,0,4.4504,4.4568,4.4574,4.4639,4.4681,4.4736,4.4767,4.4775,4.482,4.4818,4.4847,4.4859,4.492,4.4945,4.4919,4.5022,4.5006,4.5013,4.5003,4.5009,4.5014,4.5007,4.4917,0,0,0,0,0,4.451,4.4556,4.4609,4.4662,4.4683,4.4721,4.4749,4.4766,4.481,4.4827,4.4862,4.4904,4.4951,4.4981,4.5027,4.5092,4.5106,4.512,4.5125,4.5128,4.5134,4.5173,4.5181,4.5098,4.5098,4.5098,0,0,4.4522,4.4562,4.459,4.4661,4.4695,4.4743,4.4736,4.4785,4.4821,4.4834,4.4896,4.4923,4.4971,4.5036,4.5066,4.5059,4.516,4.5133,4.5135,4.514,4.5178,4.5186,4.5193,4.51,4.51,4.51,0,0,4.4569,4.4603,4.4653,4.4687,4.474,4.4766,4.4777,4.4832,4.4851,4.4913,4.4925,4.4967,4.5047,4.5082,4.511,4.5172,4.5179,4.5186,4.521,4.5247,4.5254,4.526,4.5285,4.5293,4.5192,4.5192,4.5192,0,4.4577,4.4649,4.4676,4.4727,4.4759,4.4774,4.4825,4.4857,4.4921,4.4943,4.4934,4.5037,4.507,4.5145,4.516,4.5182,4.5197,4.5181,4.5251,4.5257,4.5263,4.5287,4.5296,4.5192,4.5192,4.5192,4.5192,0,4.4658,4.4708,4.4742,4.4806,4.4841,4.4891,4.4926,4.4958,4.4972,4.4998,4.5062,4.5103,4.5159,4.5177,4.519,4.5254,4.5249,4.5245,4.523,4.5272,4.5295,4.5304,4.5193,4.5193,4.5193,4.5193,0,0,4.4701,4.4781,4.4793,4.4824,4.4884,4.4923,4.4974,4.503,4.5058,4.5102,4.5147,4.5215,4.5213,4.5245,4.5262,4.5294,4.5344,4.5287,4.5289,4.5298,4.5421,4.5425,4.5435,4.5348,4.535,4.5351,4.5417,0,4.4757,4.485,4.4877,4.4956,4.5004,4.502,4.5064,4.5106,4.5132,4.5177,4.5205,4.5254,4.5246,4.5266,4.53,4.5331,4.537,4.5326,4.5391,4.5393,4.5381,4.5446,4.545,4.5511,4.5426,4.5428,4.5429,0,4.4834,4.4882,4.4966,4.5023,4.5044,4.5084,4.5139,4.518,4.5228,4.5245,4.5282,4.5296,4.5351,4.5331,4.5408,4.5378,4.5406,4.5425,4.5428,4.5437,4.5415,4.5459,4.553,4.554,4.5443,4.5442,4.5441,0,4.4861,4.4946,4.5008,4.5033,4.5099,4.5128,4.5156,4.5203,4.5236,4.5283,4.5305,4.5357,4.5386,4.5426,4.5455,4.5438,4.5529,4.5512,4.5546,4.5546,4.5566,4.5565,4.5645,4.558,4.558,4.558,4.5579,0,4.4922,4.4973,4.5022,4.506,4.5119,4.5148,4.5205,4.5234,4.5276,4.5321,4.5336,4.5377,4.5411,4.5457,4.5479,4.5541,4.5553,4.5569,4.5574,4.5569,4.5567,4.5589,4.5586,4.5582,4.5582,4.5581,4.5581,0,4.4962,4.4996,4.5066,4.5123,4.5139,4.518,4.5229,4.5267,4.5294,4.5351,4.5366,4.5408,4.5464,4.5496,4.5564,4.5579,4.5648,4.565,4.5633,4.5636,4.5669,4.5667,4.5768,4.5784,4.5706,4.5707,4.5707,0,4.5,4.504,4.5103,4.5135,4.5165,4.5215,4.5249,4.528,4.5315,4.5374,4.5405,4.5461,4.5508,4.5596,4.5633,4.5686,4.5691,4.5723,4.5699,4.5693,4.5695,4.5693,4.5698,4.5728,4.5728,4.5729,4.5729,0,4.5064,4.5079,4.5129,4.5185,4.5226,4.5271,4.5315,4.534,4.5378,4.5417,4.5475,4.5511,4.5583,4.5639,4.5696,4.5725,4.5735,4.5737,4.5748,4.5744,4.5733,4.5742,4.5646,4.5735,4.5734,4.5734,4.5733,4.5733,4.5106,4.5144,4.5195,4.525,4.5287,4.5329,4.5369,4.5402,4.5451,4.5513,4.5527,4.5588,4.5636,4.5714,4.5745,4.5793,4.5787,4.5803,4.5807,4.5811,4.5814,4.5723,4.5803,4.5803,4.5803,4.5803,4.5803,0,4.5174,4.5208,4.5258,4.5321,4.5365,4.537,4.542,4.5456,4.5511,4.5555,4.5602,4.5669,4.5724,4.5766,4.5823,4.5853,4.5859,4.5867,4.5867,4.5874,4.5814,4.58,4.5862,4.5862,4.5862,4.5862,4.5862,4.5862,4.5214,4.5279,4.5301,4.5385,4.5418,4.548,4.5508,4.5547,4.5584,4.5658,4.5705,4.5732,4.5776,4.5836,4.5888,4.5899,4.592,4.5928,4.594,4.5884,4.5877,4.5871,4.5859,4.5931,4.5932,4.5995,4.5996,4.5996]}]]